Flag Weather past 2 weeks in Ahlen, North Rhine-Westphalia, Germany

Now
32 °F

Fog.


Feels Like: 32 °F
Forecast: 35 / 45 °F
Wind: No wind

Location: Muenster / Osnabrueck

Current Time: Nov 25, 2014 at 3:10:55 AM

Latest Report: Nov 25, 2014 at 2:00 AM


Visibility: 1 mi

Pressure: 30.35 "Hg

Humidity: 99%

Dew point: 32 °F

Location of AhlenLocation

Historic Weather in Ahlen — Graph

°F

Ahlen temperature yesterday

Maximum temperature yesterday: 53 °F (at 2:00 AM)
Minimum temperature yesterday: 35 °F (at 11:00 PM)
Average temperature yesterday: 46 °F

Past Weeks' High & Low Weather Summary

 TemperatureHumidityPressure
High57 °F (Nov 23, 1:00 PM)100% (Nov 13, 12:00 AM)30.37 "Hg (Nov 13, 12:00 AM)
Low32 °F (Nov 25, 2:00 AM)67% (Nov 24, 1:00 PM)29.47 "Hg (Nov 16, 1:00 PM)
Average47 °F88%29.92 "Hg
* Reported Nov 10 2:00 AM — Nov 25 2:00 AM, Ahlen, Weather by CustomWeather, © 2014

Note: Actual official high and low records may vary slightly from our data, if they occured in-between our weather recording intervals... More about our weather records

Advertising

Ahlen weather history for previous 24 hours

 ConditionsComfort  
Time TempWeatherWind HumidityBarometerVisibility
2:00 AM
Nov 25
32 °FFog.No wind99%30.35 "Hg1 mi
1:00 AM33 °FFog.1 mph100%30.35 "Hg1 mi
12:00 AM34 °FFog.1 mph98%30.35 "Hg1 mi
11:00 PM
Nov 24
35 °FFog.1 mph100%30.35 "Hg1 mi
10:00 PM37 °FPassing clouds.1 mph97%30.35 "Hg19 mi
9:00 PM39 °FOvercast.1 mph95%30.35 "Hg19 mi
8:00 PM38 °FPassing clouds.1 mph97%30.34 "Hg19 mi
7:00 PM39 °FPassing clouds.1 mph93%30.33 "Hg16 mi
6:00 PM42 °FPassing clouds.1 mph89%30.31 "Hg16 mi
5:00 PM46 °FPassing clouds.1 mph76%30.30 "Hg16 mi
4:00 PM48 °FPartly sunny.2 mph73%30.29 "Hg16 mi
3:00 PM49 °FScattered clouds.3 mph73%30.28 "Hg16 mi
2:00 PM51 °FPassing clouds.3 mph69%30.27 "Hg12 mi
1:00 PM50 °FPassing clouds.5 mph67%30.27 "Hg12 mi
12:00 PM49 °FPassing clouds.3 mph74%30.26 "Hg12 mi
11:00 AM47 °FPassing clouds.3 mph84%30.25 "Hg12 mi
10:00 AM45 °FPassing clouds.3 mph92%30.24 "Hg9 mi
9:00 AM42 °FScattered clouds.3 mph96%30.21 "Hg9 mi
8:00 AM45 °FPassing clouds.3 mph93%30.19 "Hg12 mi
7:00 AM46 °FPassing clouds.3 mph92%30.15 "Hg22 mi
6:00 AM48 °FLight rain. Low clouds.6 mph92%30.11 "Hg9 mi
5:00 AM49 °FRain. Low clouds.3 mph96%30.07 "Hg6 mi
4:00 AM50 °FLight rain. Low clouds.6 mph93%30.05 "Hg6 mi
3:00 AM53 °FLight rain. Overcast.7 mph88%30.01 "Hg7 mi
Weather by CustomWeather, © 2014

See weather overviewHow to use our weather pages